Location: Oberwangen
(47.4286°N, 8.9679°E)
Time: 14:15:42
(UTC+00:00)

Cosmos 1674 - Pass Details

Date: 20 June 2021
Orbit: 494 x 514 km, 82.5° (Epoch: 02 August)

Event Time Altitude Azimuth Distance (km) Brightness Sun altitude
Rises 20:41:47 0° 201° (SSW) 2,573 5.9 -10.1°
Reaches altitude 10° 20:43:56 10° 208° (SSW) 1,693 5.1 -10.3°
Maximum altitude 20:47:31 47° 283° (WNW) 667 3.6 -10.7°
Drops below altitude 10° 20:51:08 10° 358° (N) 1,703 6.2 -11.0°
Sets 20:53:19 0° 5° (N) 2,591 7.1 -11.3°
